[[{"header":{"parameterUnit":"m.s-1","parameterCategory":1,"la1":30.2991,"la2":30.254,"lo1":-89.0895,"lo2":-89.0444,"dy":0.0017,"dx":0.0017,"nx":28,"ny":28,"refTime":"2024-02-01T03:00:00:Z","depth":0,"parameterNumber":2,"parameterNumberName":"U-component_of_WINDS"},"data":[0,0,0,0,0,0,0,0,0,0,0,0,0,0,0,0,0,0,0,0,0,0,0,0,0,0,0,0,0,0,0,0,0,0,0,0,0,0,0,0,0,0,0,0,0,0,0,0,0,0,0,0,0,0,0,0,0,0,-2.452,-2.452,0,-2.4488,-2.4488,-2.4488,-2.4391,-2.4389,-2.4387,-2.4385,-2.4353,-2.4355,-2.4356,0,0,0,0,0,0,0,0,0,0,0,0,0,-2.45,-2.4501,-2.452,-2.452,-2.4519,-2.4488,-2.4488,-2.4488,-2.4391,-2.4389,-2.4386,-2.4384,-2.4353,-2.4354,-2.4356,0,0,0,0,0,0,0,0,0,0,0,0,0,-2.4493,-2.4501,-2.452,-2.4468,-2.4462,-2.4489,-2.4488,-2.4487,-2.4392,-2.4389,-2.4385,-2.4382,-2.4353,-2.4354,-2.4356,-2.4431,0,0,-2.4361,-2.4362,0,0,0,0,0,0,0,0,-2.4493,-2.4494,-2.4476,-2.4471,-2.4466,-2.444,-2.4469,-2.4468,-2.4393,-2.4419,-2.4385,-2.4381,-2.4385,-2.4384,-2.4385,-2.4429,-2.4428,-2.4361,-2.4362,-2.4363,-2.4364,0,0,0,0,0,0,0,-2.4494,-2.4494,-2.4507,-2.4476,-2.4469,-2.4447,-2.4442,-2.4469,-2.442,-2.4416,-2.4409,-2.4407,-2.4382,-2.4384,-2.4384,-2.4427,-2.4361,-2.4363,-2.4364,-2.4365,-2.4533,-2.4536,0,0,0,0,0,0,-2.4502,-2.4496,-2.4508,-2.4507,-2.4472,-2.4449,-2.4444,-2.4452,-2.442,-2.4412,-2.4409,-2.4402,-2.4382,-2.4382,-2.4382,-2.4467,-2.4363,-2.4365,-2.4366,-2.453,-2.4534,-2.4538,0,0,0,0,0,0,-2.4502,-2.4504,-2.451,-2.4499,-2.4498,-2.4453,-2.4462,-2.4453,-2.4454,-2.4414,-2.4406,-2.442,-2.438,-2.438,-2.442,-2.4465,-2.4366,-2.4367,-2.4526,-2.4531,-2.4536,-2.4639,0,0,0,0,0,0,-2.4502,-2.4504,-2.4531,-2.45,-2.4499,-2.4547,-2.4465,-2.4454,-2.4457,-2.4448,-2.4422,-2.4415,-2.4377,-2.4418,-2.4421,-2.4466,-2.4369,-2.4521,-2.4528,-2.4534,-2.4631,-2.4647,-2.4661,0,0,0,0,0,-2.4501,-2.4561,-2.4533,-2.4535,-2.4532,-2.455,-2.4549,-2.4504,-2.4462,-2.4489,-2.4464,-2.4416,-2.446,-2.4422,-2.4426,-2.4471,-2.4518,-2.4526,-2.4534,-2.4625,-2.4644,-2.466,0,0,0,0,0,0,-2.4598,-2.4556,-2.4524,-2.4576,-2.4568,-2.4533,-2.4566,-2.4526,-2.4529,-2.452,-2.4465,-2.446,-2.4508,-2.4494,-2.4452,-2.4543,-2.4481,-2.449,-2.455,-2.4568,-2.4582,-2.4583,-2.437,0,0,0,0,0,-2.4626,-2.4644,-2.4606,-2.4656,-2.4653,-2.4611,-2.4617,-2.4584,-2.4572,-2.4568,-2.4545,-2.4537,-2.4549,-2.4558,-2.4567,-2.463,-2.4623,-2.4664,-2.4678,-2.469,-2.4698,-2.4731,-2.4749,-2.4563,-2.4563,-2.4563,0,0,-2.4683,-2.4662,-2.4676,-2.4675,-2.4664,-2.4684,-2.4608,-2.4632,-2.4647,-2.4572,-2.4607,-2.4592,-2.4579,-2.4631,-2.4653,-2.4621,-2.4748,-2.47,-2.471,-2.4711,-2.4741,-2.4759,-2.4774,-2.4568,-2.4567,-2.4567,0,0,-2.4796,-2.4782,-2.4822,-2.4814,-2.4799,-2.4771,-2.4781,-2.4754,-2.474,-2.4776,-2.472,-2.4738,-2.4759,-2.4752,-2.4752,-2.4867,-2.4823,-2.4872,-2.4947,-2.4981,-2.4995,-2.5008,-2.5048,-2.5064,-2.488,-2.4881,-2.4881,0,-2.4868,-2.4895,-2.4848,-2.4876,-2.4878,-2.4812,-2.4853,-2.4847,-2.4836,-2.4839,-2.4804,-2.4831,-2.4818,-2.4868,-2.4896,-2.4898,-2.4908,-2.4873,-2.4997,-2.5009,-2.502,-2.5058,-2.5074,-2.4886,-2.4886,-2.4885,-2.4885,0,-2.4985,-2.5005,-2.504,-2.5031,-2.5037,-2.5072,-2.5031,-2.5043,-2.501,-2.4987,-2.5025,-2.5007,-2.5012,-2.5022,-2.499,-2.5068,-2.5049,-2.5007,-2.4943,-2.5045,-2.5079,-2.5094,-2.4895,-2.4893,-2.4891,-2.489,0,0,-2.5154,-2.5121,-2.5135,-2.513,-2.5111,-2.5126,-2.5159,-2.5164,-2.5175,-2.5172,-2.5198,-2.522,-2.5181,-2.518,-2.5148,-2.5178,-2.527,-2.5131,-2.513,-2.5157,-2.5355,-2.5386,-2.5403,-2.5242,-2.5245,-2.5247,-2.5356,0,-2.526,-2.5313,-2.5273,-2.5333,-2.5352,-2.5292,-2.5321,-2.5313,-2.5293,-2.5307,-2.5285,-2.5301,-2.5249,-2.5249,-2.5276,-2.5253,-2.5309,-2.5245,-2.5266,-2.5267,-2.5268,-2.5421,-2.5453,-2.5556,-2.5369,-2.5372,-2.5373,0,-2.539,-2.5392,-2.5454,-2.5433,-2.5439,-2.5466,-2.5468,-2.5482,-2.5473,-2.5456,-2.5458,-2.5419,-2.5451,-2.5391,-2.5435,-2.5392,-2.5399,-2.539,-2.5393,-2.5391,-2.5324,-2.5422,-2.5588,-2.5603,-2.5394,-2.5393,-2.5391,0,-2.5505,-2.5525,-2.5564,-2.5563,-2.5539,-2.5559,-2.5551,-2.5538,-2.5545,-2.5548,-2.5551,-2.5558,-2.5561,-2.5568,-2.5533,-2.5493,-2.5581,-2.5518,-2.5568,-2.5569,-2.5587,-2.5586,-2.5755,-2.5596,-2.5595,-2.5595,-2.5595,0,-2.5626,-2.5667,-2.5616,-2.564,-2.5685,-2.564,-2.5685,-2.567,-2.5661,-2.5682,-2.5632,-2.5653,-2.5605,-2.5622,-2.5595,-2.5636,-2.5638,-2.5626,-2.5617,-2.5629,-2.563,-2.563,-2.5621,-2.5599,-2.5598,-2.5598,-2.5597,0,-2.5761,-2.5729,-2.5768,-2.5744,-2.5739,-2.5773,-2.5752,-2.5774,-2.5753,-2.578,-2.5784,-2.575,-2.5768,-2.5734,-2.5747,-2.5728,-2.5785,-2.5767,-2.5788,-2.5781,-2.5833,-2.5828,-2.6006,-2.6027,-2.5857,-2.5858,-2.586,0,-2.5839,-2.5868,-2.5848,-2.5859,-2.5853,-2.5871,-2.5877,-2.5837,-2.5846,-2.5839,-2.5863,-2.5876,-2.5884,-2.5915,-2.5892,-2.5902,-2.5883,-2.5945,-2.5884,-2.5894,-2.5882,-2.5879,-2.5882,-2.5956,-2.5958,-2.596,-2.5961,0,-2.598,-2.5964,-2.5975,-2.5982,-2.5991,-2.5995,-2.5994,-2.6006,-2.5963,-2.5977,-2.5994,-2.6001,-2.6015,-2.6029,-2.6034,-2.6026,-2.5987,-2.5982,-2.5993,-2.6003,-2.6014,-2.6007,-2.582,-2.5977,-2.5975,-2.5974,-2.5973,-2.5972,-2.6087,-2.6111,-2.6101,-2.6116,-2.6112,-2.6114,-2.6134,-2.6116,-2.613,-2.6138,-2.6114,-2.6137,-2.613,-2.6133,-2.613,-2.6148,-2.612,-2.6138,-2.6142,-2.6146,-2.6153,-2.6014,-2.6149,-2.6149,-2.6148,-2.6148,-2.6148,0,-2.6224,-2.6216,-2.623,-2.6232,-2.6245,-2.6209,-2.6208,-2.622,-2.6241,-2.6238,-2.6248,-2.6269,-2.6284,-2.6264,-2.6275,-2.6293,-2.6276,-2.6298,-2.6294,-2.6293,-2.6178,-2.6166,-2.6312,-2.6312,-2.6312,-2.6312,-2.6312,-2.6312,-2.6297,-2.6335,-2.6319,-2.6356,-2.6347,-2.637,-2.6372,-2.6375,-2.6372,-2.6398,-2.641,-2.6397,-2.6387,-2.6398,-2.641,-2.6404,-2.641,-2.6437,-2.6425,-2.6317,-2.6301,-2.6286,-2.6274,-2.644,-2.644,-2.6538,-2.6539,-2.6539]},{"header":{"parameterUnit":"m.s-1","parameterCategory":1,"la1":30.2991,"la2":30.254,"lo1":-89.0895,"lo2":-89.0444,"dy":0.0017,"dx":0.0017,"nx":28,"ny":28,"refTime":"2024-02-01T03:00:00:Z","depth":0,"parameterNumber":3,"parameterNumberName":"V-component_of_WINDS"},"data":[0,0,0,0,0,0,0,0,0,0,0,0,0,0,0,0,0,0,0,0,0,0,0,0,0,0,0,0,0,0,0,0,0,0,0,0,0,0,0,0,0,0,0,0,0,0,0,0,0,0,0,0,0,0,0,0,0,0,1.1512,1.1512,0,1.1512,1.1512,1.1512,1.1575,1.1577,1.1578,1.158,1.1576,1.1574,1.1572,0,0,0,0,0,0,0,0,0,0,0,0,0,1.1562,1.1561,1.1512,1.1512,1.1512,1.1512,1.1512,1.1512,1.1575,1.1577,1.1579,1.1581,1.1576,1.1574,1.1572,0,0,0,0,0,0,0,0,0,0,0,0,0,1.1549,1.1561,1.1512,1.1543,1.1546,1.1512,1.1512,1.1512,1.1574,1.1577,1.1579,1.1582,1.1577,1.1574,1.1572,1.1506,0,0,1.1564,1.1563,0,0,0,0,0,0,0,0,1.155,1.1547,1.1538,1.1541,1.1544,1.1546,1.1529,1.151,1.1574,1.1563,1.158,1.1583,1.1563,1.1562,1.1557,1.1506,1.1506,1.1564,1.1562,1.1561,1.1561,0,0,0,0,0,0,0,1.1551,1.1548,1.1512,1.1538,1.1542,1.1556,1.1557,1.1525,1.1549,1.1564,1.1569,1.1568,1.1565,1.1559,1.1557,1.1506,1.1564,1.1562,1.156,1.1559,1.1404,1.1401,0,0,0,0,0,0,1.1548,1.1548,1.1512,1.1512,1.1553,1.1553,1.1554,1.1543,1.155,1.1553,1.1566,1.1571,1.1562,1.156,1.1557,1.1482,1.1561,1.1559,1.1558,1.1407,1.1403,1.1401,0,0,0,0,0,0,1.1549,1.1544,1.1512,1.1531,1.1528,1.155,1.1536,1.1541,1.1535,1.1551,1.1555,1.1555,1.1564,1.1561,1.1519,1.1482,1.1558,1.1556,1.141,1.1406,1.1402,1.133,0,0,0,0,0,0,1.155,1.1544,1.152,1.153,1.1527,1.1474,1.1534,1.154,1.1531,1.1538,1.1542,1.1545,1.1565,1.1523,1.1517,1.148,1.1554,1.1413,1.1408,1.1403,1.1336,1.1324,1.1314,0,0,0,0,0,1.1551,1.1498,1.1518,1.1513,1.1497,1.1472,1.147,1.1496,1.1528,1.1503,1.1514,1.1545,1.1488,1.1518,1.1512,1.1474,1.1415,1.1409,1.1404,1.134,1.1326,1.1314,0,0,0,0,0,0,1.148,1.15,1.1522,1.1471,1.1469,1.1483,1.1452,1.148,1.1468,1.1474,1.1506,1.1506,1.146,1.1463,1.1496,1.1412,1.1457,1.145,1.1411,1.1398,1.1387,1.1387,1.1552,0,0,0,0,0,1.1459,1.1438,1.1456,1.1408,1.1407,1.143,1.142,1.144,1.1439,1.1439,1.1446,1.1443,1.1425,1.1412,1.1396,1.1337,1.1339,1.1308,1.1298,1.1289,1.1281,1.1251,1.1238,1.1381,1.1381,1.1381,0,0,1.1413,1.1421,1.1406,1.1394,1.1396,1.1373,1.1429,1.1401,1.1384,1.1434,1.1396,1.1402,1.1401,1.1351,1.1329,1.1352,1.1243,1.1281,1.1274,1.1271,1.1244,1.123,1.1218,1.1377,1.1378,1.1378,0,0,1.1319,1.1323,1.1285,1.1286,1.1289,1.1305,1.1296,1.1306,1.1312,1.1275,1.1312,1.1292,1.126,1.1258,1.1252,1.1161,1.1189,1.1155,1.1097,1.1068,1.1057,1.1047,1.1014,1.1002,1.1148,1.1148,1.1148,0,1.1261,1.1229,1.1261,1.1232,1.1226,1.1273,1.1234,1.1234,1.123,1.1224,1.1251,1.1213,1.1215,1.1166,1.1144,1.1138,1.1128,1.1153,1.1056,1.1047,1.1038,1.1007,1.0994,1.1144,1.1144,1.1144,1.1145,0,1.1159,1.1136,1.1105,1.1103,1.1093,1.1059,1.1086,1.1072,1.1095,1.1108,1.107,1.1075,1.1062,1.1052,1.1072,1.1006,1.102,1.1051,1.1097,1.1019,1.0991,1.0979,1.1138,1.1139,1.114,1.1141,0,0,1.1015,1.1035,1.1022,1.1023,1.1031,1.1013,1.0982,1.0971,1.0959,1.0956,1.093,1.0903,1.0932,1.0926,1.0947,1.0922,1.0849,1.0956,1.0956,1.0935,1.0777,1.0753,1.0738,1.0869,1.0867,1.0865,1.0777,0,1.0924,1.0873,1.0902,1.0847,1.0826,1.0872,1.0845,1.0847,1.0859,1.0843,1.0856,1.0837,1.0877,1.0874,1.0851,1.0863,1.0818,1.087,1.0844,1.0843,1.0841,1.0723,1.0697,1.0613,1.0766,1.0764,1.0762,0,1.0809,1.0804,1.0747,1.0761,1.0753,1.0728,1.0722,1.0706,1.0709,1.072,1.0715,1.0743,1.0713,1.076,1.0719,1.0754,1.0746,1.0751,1.0748,1.0745,1.0796,1.0716,1.0587,1.0574,1.0745,1.0747,1.0748,0,1.071,1.0689,1.0652,1.0651,1.0666,1.0648,1.0653,1.0659,1.0652,1.0646,1.0641,1.0631,1.0624,1.0616,1.064,1.0672,1.0596,1.0645,1.0603,1.0602,1.0583,1.0584,1.045,1.058,1.058,1.058,1.058,0,1.0604,1.0567,1.0608,1.0585,1.0546,1.058,1.054,1.055,1.0555,1.0535,1.0574,1.0554,1.0588,1.0571,1.0591,1.0554,1.0551,1.0558,1.0563,1.0554,1.0553,1.0547,1.0553,1.0577,1.0578,1.0578,1.0579,0,1.0485,1.0512,1.0475,1.0494,1.0498,1.0468,1.0483,1.0463,1.048,1.0453,1.0449,1.0474,1.0457,1.0481,1.0465,1.0479,1.0428,1.0443,1.0427,1.0431,1.0388,1.0391,1.0244,1.0227,1.0369,1.0368,1.0366,0,1.0415,1.0388,1.0405,1.0395,1.0399,1.0383,1.0376,1.041,1.0401,1.0404,1.0383,1.037,1.036,1.033,1.0346,1.0335,1.0349,1.0298,1.0347,1.0339,1.0347,1.0348,1.0345,1.0287,1.0286,1.0284,1.0283,0,1.0287,1.0302,1.0291,1.0286,1.0277,1.0274,1.0274,1.0263,1.0299,1.0287,1.0271,1.0264,1.025,1.0236,1.0229,1.0234,1.0263,1.0268,1.0258,1.0247,1.0239,1.0242,1.0399,1.0271,1.0272,1.0273,1.0274,1.0274,1.0189,1.0168,1.0178,1.0165,1.0169,1.0169,1.0151,1.0167,1.0155,1.0147,1.0168,1.0147,1.0153,1.0147,1.0149,1.0133,1.0154,1.0139,1.0135,1.0131,1.0124,1.0243,1.0131,1.0132,1.0132,1.0133,1.0133,0,1.0063,1.0072,1.0061,1.006,1.0051,1.0084,1.0085,1.0074,1.0056,1.006,1.0051,1.0033,1.0021,1.0037,1.0027,1.0011,1.0024,1.0007,1.0007,1.0008,1.0105,1.0115,0.9996,0.9996,0.9996,0.9996,0.9996,0.9996,0.9996,0.9962,0.9979,0.9948,0.9958,0.9939,0.9937,0.9937,0.994,0.9919,0.991,0.9922,0.9931,0.9922,0.9912,0.9917,0.9911,0.9889,0.9898,0.9988,1.0001,1.0014,1.0023,0.9887,0.9887,0.9803,0.9802,0.9801]}]]